TVS1KT LDSP-LKPR

Flight info

Callsign TVS1KT
Flight time 1h 6m
Altitude 32000
Route UNIPA DCT MONID DCT PETOV DCT GRZ DCT NURMI DCT BUDEX DCT APRAQ
Aircraft B738/M-SDE2E3FGHIRWXY/LB1

Departure

Time 2026-05-07 13:51
Airport Split Saint Jerome Airport (LDSP)

Arrival

Time 2026-05-07 14:57
Airport Václav Havel Airport Prague (LKPR)
Time Latitude Longitude Altitude Speed Heading
2026-05-07 13:23 43.53693 16.29803 56 ft 0 kts 115°
2026-05-07 13:45 43.53693 16.29804 56 ft 0 kts 115°
2026-05-07 13:45 43.53700 16.29824 56 ft 6 kts 12°
2026-05-07 13:45 43.53722 16.29788 57 ft 4 kts 285°
2026-05-07 13:46 43.53721 16.29733 58 ft 8 kts 241°
2026-05-07 13:46 43.53681 16.29650 59 ft 7 kts 250°
2026-05-07 13:46 43.53681 16.29645 59 ft 0 kts 284°
2026-05-07 13:49 43.53682 16.29639 59 ft 4 kts 283°
2026-05-07 13:49 43.53695 16.29516 64 ft 20 kts 266°
2026-05-07 13:49 43.53617 16.29295 70 ft 32 kts 231°
2026-05-07 13:49 43.53470 16.29036 73 ft 34 kts 232°
2026-05-07 13:50 43.53326 16.28776 67 ft 34 kts 232°
2026-05-07 13:50 43.53223 16.28571 63 ft 11 kts 197°
2026-05-07 13:50 43.53218 16.28582 63 ft 0 kts 49°
2026-05-07 13:50 43.53281 16.28699 66 ft 44 kts 51°
2026-05-07 13:51 43.53626 16.29314 70 ft 114 kts 53°
2026-05-07 13:51 43.54226 16.30393 88 ft 166 kts 51°
2026-05-07 13:51 43.54905 16.31670 784 ft 166 kts 59°
2026-05-07 13:51 43.55186 16.33206 1271 ft 170 kts 103°
2026-05-07 13:52 43.54734 16.34615 1994 ft 160 kts 125°
2026-05-07 13:52 43.54015 16.35796 2449 ft 168 kts 139°
2026-05-07 13:52 43.53026 16.36627 3026 ft 170 kts 151°
2026-05-07 13:52 43.51975 16.37363 3572 ft 173 kts 151°
2026-05-07 13:53 43.50872 16.38159 4036 ft 182 kts 152°
2026-05-07 13:53 43.49742 16.38960 4540 ft 188 kts 152°
2026-05-07 13:53 43.48574 16.39823 5104 ft 191 kts 152°
2026-05-07 13:53 43.47363 16.40594 5461 ft 198 kts 166°
2026-05-07 13:54 43.46005 16.40567 5418 ft 196 kts 200°
2026-05-07 13:54 43.44807 16.39566 5686 ft 208 kts 221°
2026-05-07 13:54 43.43893 16.38127 6494 ft 197 kts 239°
2026-05-07 13:54 43.43498 16.36336 7031 ft 200 kts 267°
2026-05-07 13:55 43.43686 16.34477 7636 ft 200 kts 284°
2026-05-07 13:55 43.44256 16.32723 8150 ft 206 kts 300°
2026-05-07 13:55 43.45294 16.31210 8239 ft 237 kts 327°
2026-05-07 13:55 43.46897 16.30553 8685 ft 250 kts 355°
2026-05-07 13:56 43.48631 16.30576 9400 ft 250 kts 358°
2026-05-07 13:56 43.50382 16.30554 9953 ft 256 kts
2026-05-07 13:56 43.52175 16.30976 10344 ft 271 kts 12°
2026-05-07 13:56 43.54053 16.31697 10728 ft 286 kts 14°
2026-05-07 13:57 43.55999 16.32451 11076 ft 301 kts 13°
2026-05-07 13:57 43.58087 16.33204 11434 ft 317 kts 12°
2026-05-07 13:57 43.60279 16.33950 11807 ft 331 kts 11°
2026-05-07 13:57 43.62564 16.34709 12338 ft 340 kts 11°
2026-05-07 13:58 43.64849 16.35465 12952 ft 346 kts 11°
2026-05-07 13:58 43.67221 16.36251 13670 ft 349 kts 11°
2026-05-07 13:58 43.69598 16.37042 14284 ft 354 kts 11°
2026-05-07 13:58 43.71995 16.37841 14942 ft 358 kts 11°
2026-05-07 13:59 43.74412 16.38648 15577 ft 363 kts 11°
2026-05-07 13:59 43.76893 16.39477 16205 ft 368 kts 10°
2026-05-07 13:59 43.79385 16.40312 16853 ft 371 kts 10°
2026-05-07 13:59 43.81915 16.41162 17470 ft 376 kts 10°
2026-05-07 14:00 43.84442 16.42012 18038 ft 381 kts 10°
2026-05-07 14:00 43.87066 16.42894 18619 ft 386 kts 10°
2026-05-07 14:00 43.89685 16.43774 19220 ft 390 kts 10°
2026-05-07 14:00 43.92327 16.44662 19796 ft 394 kts 10°
2026-05-07 14:01 43.95020 16.45566 20382 ft 399 kts 10°
2026-05-07 14:01 43.97721 16.46474 20949 ft 403 kts
2026-05-07 14:01 44.00436 16.47310 21497 ft 405 kts
2026-05-07 14:01 44.03235 16.47846 21983 ft 407 kts 359°
2026-05-07 14:02 44.06044 16.47819 22534 ft 405 kts 352°
2026-05-07 14:02 44.08858 16.47453 23051 ft 407 kts 348°
2026-05-07 14:02 44.11681 16.46927 23581 ft 409 kts 347°
2026-05-07 14:02 44.14485 16.46347 24058 ft 413 kts 346°
2026-05-07 14:03 44.17337 16.45747 24584 ft 416 kts 346°
2026-05-07 14:03 44.20208 16.45154 25123 ft 418 kts 346°
2026-05-07 14:03 44.23087 16.44576 25558 ft 422 kts 346°
2026-05-07 14:03 44.25985 16.44006 26044 ft 425 kts 346°
2026-05-07 14:04 44.28935 16.43437 26473 ft 429 kts 347°
2026-05-07 14:04 44.31907 16.42871 26961 ft 431 kts 347°
2026-05-07 14:04 44.34918 16.42300 27404 ft 434 kts 347°
2026-05-07 14:04 44.37940 16.41731 27857 ft 436 kts 347°
2026-05-07 14:05 44.40963 16.41163 28281 ft 439 kts 347°
2026-05-07 14:05 44.44011 16.40588 28681 ft 443 kts 347°
2026-05-07 14:05 44.47063 16.40014 29132 ft 444 kts 347°
2026-05-07 14:05 44.50135 16.39436 29558 ft 446 kts 347°
2026-05-07 14:06 44.53207 16.38857 29928 ft 449 kts 346°
2026-05-07 14:06 44.56330 16.38267 30292 ft 453 kts 346°
2026-05-07 14:06 44.59442 16.37677 30630 ft 456 kts 346°
2026-05-07 14:06 44.62623 16.37073 31011 ft 457 kts 346°
2026-05-07 14:07 44.65774 16.36477 31405 ft 459 kts 346°
2026-05-07 14:07 44.68952 16.35874 31678 ft 462 kts 346°
2026-05-07 14:07 44.72144 16.35269 32001 ft 464 kts 346°
2026-05-07 14:08 44.78547 16.34057 32011 ft 459 kts 346°
2026-05-07 14:08 44.84855 16.32861 32011 ft 461 kts 346°
2026-05-07 14:09 44.91244 16.31641 32006 ft 460 kts 346°
2026-05-07 14:09 44.97583 16.30421 31996 ft 463 kts 346°
2026-05-07 14:10 45.03962 16.28992 31998 ft 460 kts 344°
2026-05-07 14:10 45.10279 16.27434 31997 ft 461 kts 343°
2026-05-07 14:11 45.16609 16.25859 31993 ft 462 kts 343°
2026-05-07 14:11 45.22930 16.24301 31991 ft 462 kts 343°
2026-05-07 14:12 45.29301 16.22746 31984 ft 464 kts 344°
2026-05-07 14:12 45.35650 16.21201 31981 ft 463 kts 344°
2026-05-07 14:13 45.42034 16.19642 31971 ft 465 kts 344°
2026-05-07 14:13 45.48428 16.18084 31975 ft 467 kts 343°
2026-05-07 14:14 45.54837 16.16515 31977 ft 466 kts 343°
2026-05-07 14:14 45.61225 16.14947 31973 ft 469 kts 343°
2026-05-07 14:15 45.67646 16.13371 31965 ft 469 kts 344°
2026-05-07 14:15 45.74100 16.11785 31966 ft 471 kts 343°
2026-05-07 14:16 45.80536 16.10198 31967 ft 470 kts 343°
2026-05-07 14:16 45.87046 16.08587 31968 ft 472 kts 343°
2026-05-07 14:17 45.93486 16.06993 31966 ft 474 kts 343°
2026-05-07 14:17 46.00014 16.05371 31969 ft 474 kts 343°
2026-05-07 14:18 46.06504 16.03756 31957 ft 472 kts 343°
2026-05-07 14:18 46.12971 16.02142 31957 ft 473 kts 343°
2026-05-07 14:19 46.19476 16.00513 31957 ft 472 kts 343°
2026-05-07 14:19 46.25921 15.98887 31942 ft 471 kts 343°
2026-05-07 14:20 46.32197 15.96419 31951 ft 463 kts 331°
2026-05-07 14:20 46.37958 15.92401 31942 ft 456 kts 324°
2026-05-07 14:21 46.43462 15.87888 31938 ft 453 kts 322°
2026-05-07 14:21 46.48916 15.83312 31937 ft 453 kts 323°
2026-05-07 14:22 46.54390 15.78769 31925 ft 452 kts 323°
2026-05-07 14:22 46.59851 15.74280 31925 ft 454 kts 323°
2026-05-07 14:23 46.65366 15.69768 31923 ft 452 kts 323°
2026-05-07 14:23 46.70850 15.65278 31921 ft 453 kts 323°
2026-05-07 14:24 46.76347 15.60774 31912 ft 453 kts 324°
2026-05-07 14:24 46.81838 15.56265 31908 ft 452 kts 324°
2026-05-07 14:25 46.87359 15.51720 31909 ft 454 kts 324°
2026-05-07 14:25 46.92842 15.47197 31902 ft 452 kts 324°
2026-05-07 14:26 46.98387 15.42719 31899 ft 456 kts 326°
2026-05-07 14:26 47.04115 15.38606 31903 ft 460 kts 328°
2026-05-07 14:27 47.09872 15.34617 31908 ft 458 kts 328°
2026-05-07 14:27 47.15665 15.30575 31922 ft 458 kts 327°
2026-05-07 14:28 47.21367 15.26550 31929 ft 456 kts 327°
2026-05-07 14:28 47.27135 15.22435 31937 ft 459 kts 327°
2026-05-07 14:29 47.32853 15.18336 31936 ft 458 kts 327°
2026-05-07 14:29 47.38582 15.14212 31948 ft 458 kts 327°
2026-05-07 14:30 47.44323 15.10064 31948 ft 461 kts 327°
2026-05-07 14:30 47.50095 15.05890 31948 ft 460 kts 327°
2026-05-07 14:31 47.55795 15.01760 31944 ft 459 kts 327°
2026-05-07 14:31 47.61525 14.97592 31953 ft 458 kts 328°
2026-05-07 14:32 47.67332 14.93558 31957 ft 464 kts 332°
2026-05-07 14:32 47.73447 14.90357 31953 ft 467 kts 337°
2026-05-07 14:33 47.79652 14.87561 31957 ft 467 kts 338°
2026-05-07 14:33 47.85860 14.84813 31970 ft 467 kts 338°
2026-05-07 14:34 47.92066 14.82021 31965 ft 466 kts 338°
2026-05-07 14:34 47.98489 14.80233 31970 ft 476 kts 352°
2026-05-07 14:35 48.05107 14.80002 31971 ft 477 kts 357°
2026-05-07 14:35 48.11758 14.80103 31828 ft 479 kts 357°
2026-05-07 14:35 48.15068 14.80141 31576 ft 476 kts 357°
2026-05-07 14:36 48.18379 14.80154 31343 ft 473 kts 357°
2026-05-07 14:36 48.21620 14.80141 31108 ft 471 kts 356°
2026-05-07 14:36 48.24941 14.80104 30869 ft 472 kts 356°
2026-05-07 14:36 48.28212 14.80049 30643 ft 480 kts 356°
2026-05-07 14:37 48.31601 14.79976 30390 ft 495 kts 356°
2026-05-07 14:37 48.38641 14.79803 29861 ft 506 kts 356°
2026-05-07 14:37 48.42114 14.79718 29601 ft 505 kts 356°
2026-05-07 14:38 48.45617 14.79633 29344 ft 504 kts 356°
2026-05-07 14:38 48.49159 14.79546 29084 ft 504 kts 356°
2026-05-07 14:38 48.52638 14.79459 28828 ft 504 kts 356°
2026-05-07 14:38 48.56130 14.79372 28571 ft 503 kts 356°
2026-05-07 14:39 48.59606 14.79286 28257 ft 504 kts 356°
2026-05-07 14:39 48.63125 14.79196 27711 ft 503 kts 356°
2026-05-07 14:39 48.66626 14.79106 27132 ft 501 kts 356°
2026-05-07 14:39 48.70068 14.79017 26554 ft 500 kts 356°
2026-05-07 14:40 48.73545 14.78926 25970 ft 500 kts 356°
2026-05-07 14:40 48.77019 14.78834 25273 ft 499 kts 356°
2026-05-07 14:40 48.80467 14.78743 24570 ft 494 kts 356°
2026-05-07 14:40 48.83919 14.78653 23840 ft 489 kts 356°
2026-05-07 14:41 48.87260 14.78567 23108 ft 485 kts 356°
2026-05-07 14:41 48.90642 14.78481 22359 ft 480 kts 356°
2026-05-07 14:41 48.93959 14.78396 21627 ft 475 kts 356°
2026-05-07 14:41 48.97208 14.78314 20905 ft 470 kts 356°
2026-05-07 14:42 49.00460 14.78231 20176 ft 465 kts 356°
2026-05-07 14:42 49.03667 14.78149 19525 ft 459 kts 356°
2026-05-07 14:42 49.06820 14.78067 18897 ft 453 kts 356°
2026-05-07 14:42 49.09969 14.77985 18260 ft 447 kts 356°
2026-05-07 14:43 49.13039 14.77905 17639 ft 442 kts 356°
2026-05-07 14:43 49.16097 14.77824 17018 ft 436 kts 356°
2026-05-07 14:43 49.19101 14.77744 16402 ft 431 kts 356°
2026-05-07 14:43 49.22091 14.77662 15788 ft 426 kts 356°
2026-05-07 14:44 49.25030 14.77580 15172 ft 421 kts 356°
2026-05-07 14:44 49.27910 14.77498 14570 ft 416 kts 356°
2026-05-07 14:44 49.30770 14.77418 13969 ft 412 kts 356°
2026-05-07 14:44 49.33617 14.77340 13364 ft 408 kts 356°
2026-05-07 14:45 49.36454 14.77264 12761 ft 403 kts 356°
2026-05-07 14:45 49.39228 14.77191 12487 ft 390 kts 356°
2026-05-07 14:45 49.41857 14.77126 12275 ft 369 kts 356°
2026-05-07 14:45 49.44383 14.77065 12113 ft 354 kts 356°
2026-05-07 14:46 49.46812 14.77000 11858 ft 344 kts 356°
2026-05-07 14:46 49.49163 14.76933 11607 ft 335 kts 356°
2026-05-07 14:46 49.51458 14.76867 11357 ft 327 kts 356°
2026-05-07 14:46 49.53704 14.76805 11106 ft 319 kts 356°
2026-05-07 14:47 49.55887 14.76744 10856 ft 312 kts 356°
2026-05-07 14:47 49.58039 14.76684 10605 ft 305 kts 356°
2026-05-07 14:47 49.60137 14.76626 10352 ft 299 kts 356°
2026-05-07 14:47 49.62211 14.76570 10101 ft 297 kts 356°
2026-05-07 14:48 49.64272 14.76511 9854 ft 296 kts 356°
2026-05-07 14:48 49.66334 14.76452 9574 ft 296 kts 356°
2026-05-07 14:48 49.68388 14.76396 9246 ft 293 kts 356°
2026-05-07 14:48 49.70435 14.76341 8919 ft 291 kts 355°
2026-05-07 14:49 49.72376 14.75793 8590 ft 286 kts 334°
2026-05-07 14:49 49.74120 14.74173 8288 ft 299 kts 321°
2026-05-07 14:49 49.75777 14.72244 7952 ft 300 kts 321°
2026-05-07 14:49 49.77464 14.70357 7625 ft 299 kts 323°
2026-05-07 14:50 49.79186 14.68577 7298 ft 297 kts 325°
2026-05-07 14:50 49.80919 14.66875 6972 ft 296 kts 326°
2026-05-07 14:50 49.82667 14.65193 6647 ft 295 kts 326°
2026-05-07 14:50 49.84410 14.63523 6319 ft 292 kts 326°
2026-05-07 14:51 49.86130 14.61872 5992 ft 290 kts 326°
2026-05-07 14:51 49.87832 14.60232 5671 ft 287 kts 326°
2026-05-07 14:51 49.89531 14.58641 5339 ft 283 kts 330°
2026-05-07 14:51 49.91333 14.57454 5015 ft 281 kts 338°
2026-05-07 14:52 49.93153 14.56511 4707 ft 277 kts 340°
2026-05-07 14:52 49.94967 14.55585 4456 ft 269 kts 335°
2026-05-07 14:52 49.96505 14.54089 4229 ft 255 kts 314°
2026-05-07 14:52 49.97548 14.52020 4053 ft 235 kts 300°
2026-05-07 14:53 49.98400 14.49960 3988 ft 212 kts 303°
2026-05-07 14:53 49.99240 14.48206 3975 ft 194 kts 306°
2026-05-07 14:53 50.00023 14.46656 3986 ft 175 kts 305°
2026-05-07 14:53 50.00764 14.45145 3889 ft 175 kts 304°
2026-05-07 14:54 50.01494 14.43646 3655 ft 174 kts 305°
2026-05-07 14:54 50.02206 14.42193 3437 ft 162 kts 304°
2026-05-07 14:54 50.02874 14.40826 3243 ft 152 kts 305°
2026-05-07 14:54 50.03515 14.39510 2991 ft 153 kts 304°
2026-05-07 14:55 50.04144 14.38214 2799 ft 150 kts 304°
2026-05-07 14:55 50.04776 14.36914 2593 ft 152 kts 304°
2026-05-07 14:55 50.05412 14.35612 2371 ft 151 kts 303°
2026-05-07 14:55 50.06042 14.34293 2196 ft 151 kts 304°
2026-05-07 14:56 50.06705 14.32997 1969 ft 153 kts 302°
2026-05-07 14:56 50.07348 14.31651 1771 ft 154 kts 304°
2026-05-07 14:56 50.08009 14.30348 1568 ft 153 kts 302°
2026-05-07 14:56 50.08641 14.29027 1375 ft 152 kts 302°
2026-05-07 14:57 50.09270 14.27707 1194 ft 151 kts 303°
2026-05-07 14:57 50.09797 14.26614 1182 ft 93 kts 306°
2026-05-07 14:57 50.10076 14.26040 1172 ft 49 kts 307°
2026-05-07 14:57 50.10276 14.25704 1172 ft 32 kts 332°
2026-05-07 14:58 50.10392 14.25658 1172 ft 2 kts 358°
2026-05-07 14:58 50.10400 14.25658 1172 ft 0 kts 359°
2026-05-07 14:58 50.10408 14.25658 1172 ft 3 kts 360°
2026-05-07 14:58 50.10458 14.25666 1172 ft 9 kts 14°
2026-05-07 14:59 50.10522 14.25705 1172 ft 10 kts 24°
2026-05-07 14:59 50.10586 14.25769 1172 ft 11 kts 35°
2026-05-07 14:59 50.10654 14.25841 1172 ft 12 kts 34°
2026-05-07 14:59 50.10728 14.25920 1172 ft 11 kts 34°
2026-05-07 15:00 50.10796 14.25992 1172 ft 12 kts 33°
2026-05-07 15:00 50.10871 14.26072 1172 ft 12 kts 40°
2026-05-07 15:00 50.10861 14.26188 1172 ft 12 kts 124°
2026-05-07 15:00 50.10816 14.26312 1172 ft 13 kts 117°
2026-05-07 15:01 50.10764 14.26437 1172 ft 14 kts 124°
2026-05-07 15:01 50.10731 14.26479 1172 ft 3 kts 190°
2026-05-07 15:01 50.10692 14.26442 1172 ft 7 kts 216°
2026-05-07 15:01 50.10681 14.26430 1172 ft 0 kts 215°